This is the latest recevied weather packets stored in our database for station/object W8CEN. If no packets are shown the sender has not sent any weather packets the latest 10 day(s).
| Time | Temp. | Humidity | Pressure | Rain* | Wind** | Luminosity | Snow |
|---|---|---|---|---|---|---|---|
| 1777944670 | 21.67° C | 47% | 981.2 hPa | 0 mm | - | 0 W/m² | - |
| 1777944369 | 21.67° C | 46% | 981 hPa | 0 mm | - | 0 W/m² | - |
| 1777944065 | 21.67° C | 46% | 981 hPa | 0 mm | - | 0 W/m² | - |
| 1777943760 | 21.67° C | 46% | 980.8 hPa | 0 mm | - | 0 W/m² | - |
| 1777943459 | 21.67° C | 46% | 980.8 hPa | 0 mm | - | 0 W/m² | - |
| 1777943159 | 21.67° C | 45% | 980.9 hPa | 0 mm | - | 0 W/m² | - |
| 1777942856 | 21.67° C | 45% | 980.8 hPa | 0 mm | - | 0 W/m² | - |
| 1777942552 | 21.67° C | 45% | 980.7 hPa | 0 mm | - | 0 W/m² | - |
| 1777942249 | 21.67° C | 45% | 980.7 hPa | 0 mm | - | 0 W/m² | - |
| 1777941946 | 22.22° C | 44% | 980.6 hPa | 0 mm | - | 1 W/m² | - |
| 1777941643 | 22.22° C | 43% | 980.6 hPa | 0 mm | - | 1 W/m² | - |
| 1777941341 | 22.22° C | 43% | 980.5 hPa | 0 mm | - | 2 W/m² | - |
| 1777941038 | 22.78° C | 43% | 980.5 hPa | 0 mm | - | 4 W/m² | - |
| 1777940738 | 22.78° C | 42% | 980.4 hPa | 0 mm | - | 6 W/m² | - |
| 1777940437 | 22.78° C | 42% | 980.2 hPa | 0 mm | - | 9 W/m² | - |
| 1777940134 | 22.78° C | 43% | 980.4 hPa | 0 mm | - | 14 W/m² | - |
| 1777939831 | 22.78° C | 42% | 980.3 hPa | 0 mm | - | 18 W/m² | - |
| 1777939529 | 22.78° C | 42% | 980.2 hPa | 0 mm | - | 22 W/m² | - |
| 1777939226 | 23.33° C | 42% | 980.3 hPa | 0 mm | - | 26 W/m² | - |
| 1777938923 | 23.33° C | 42% | 980.3 hPa | 0 mm | - | 31 W/m² | - |
| 1777938619 | 23.33° C | 42% | 980.1 hPa | 0 mm | - | 36 W/m² | - |
| 1777938316 | 23.33° C | 42% | 980.3 hPa | 0 mm | - | 41 W/m² | - |
| 1777938013 | 23.33° C | 42% | 980.3 hPa | 0 mm | - | 43 W/m² | - |
| 1777937708 | 23.33° C | 43% | 980.1 hPa | 0 mm | - | 42 W/m² | - |
| 1777937406 | 23.33° C | 42% | 980 hPa | 0 mm | - | 42 W/m² | - |
* Rain latest hour (hover to see other rain measurements)
** Current wind speed in m/s (hover to see current wind gust speed)